• In Russia
  • List of Countries
  • For 7 days
  • Water Temperature
  • Satellite Maps
  • Weather Map
  • Weather Widgets
  • user-avatar
    Login

    Hourly Weather Melbourne

    Today, 26 June, Wednesday

    Time Temperature Precipitation Wind Pressure Humidity
    00:00 +8°C° 0 mm 2 mps 774 mmHg 80%
    01:00 +8°C° 0 mm 2 mps 774 mmHg 81%
    02:00 +8°C° 0 mm 2 mps 774 mmHg 80%
    03:00 +8°C° 0 mm 2 mps 774 mmHg 80%
    04:00 +8°C° 0 mm 1 mps 774 mmHg 77%
    05:00 +8°C° 0 mm 1 mps 774 mmHg 77%
    06:00 +7°C° 0 mm 2 mps 775 mmHg 77%
    07:00 +7°C° 0 mm 2 mps 775 mmHg 77%
    08:00 +8°C° 0 mm 2 mps 775 mmHg 71%
    09:00 +10°C° 0 mm 2 mps 775 mmHg 66%
    10:00 +12°C° 0 mm 2 mps 775 mmHg 61%
    11:00 +14°C° 0 mm 2 mps 774 mmHg 56%
    12:00 +16°C° 0 mm 2 mps 774 mmHg 52%
    13:00 +17°C° 0 mm 2 mps 773 mmHg 47%
    14:00 +17°C° 0 mm 2 mps 773 mmHg 50%
    15:00 +17°C° 0 mm 2 mps 773 mmHg 52%
    16:00 +16°C° 0 mm 2 mps 773 mmHg 55%
    17:00 +15°C° 0 mm 2 mps 773 mmHg 62%
    18:00 +13°C° 0 mm 2 mps 773 mmHg 68%
    19:00 +10°C° 0 mm 2 mps 773 mmHg 75%
    20:00 +10°C° 0 mm 2 mps 773 mmHg 77%
    21:00 +9°C° 0 mm 2 mps 773 mmHg 78%
    22:00 +9°C° 0 mm 2 mps 774 mmHg 80%
    23:00 +9°C° 0 mm 2 mps 773 mmHg 80%

    Tomorrow, 27 June, Thursday

    Time Temperature Precipitation Wind Pressure Humidity
    00:00 +9°C° 0 mm 3 mps 773 mmHg 80%
    01:00 +8°C° 0 mm 3 mps 773 mmHg 80%
    02:00 +8°C° 0 mm 3 mps 773 mmHg 79%
    03:00 +8°C° 0 mm 3 mps 773 mmHg 78%
    04:00 +7°C° 0 mm 4 mps 772 mmHg 78%
    05:00 +7°C° 0 mm 4 mps 773 mmHg 77%
    06:00 +7°C° 0 mm 4 mps 773 mmHg 77%
    07:00 +8°C° 0 mm 4 mps 773 mmHg 77%
    08:00 +9°C° 0 mm 5 mps 773 mmHg 73%
    09:00 +10°C° 0 mm 5 mps 773 mmHg 69%
    10:00 +12°C° 0 mm 5 mps 773 mmHg 65%
    11:00 +13°C° 0 mm 5 mps 772 mmHg 62%
    12:00 +15°C° 0 mm 5 mps 772 mmHg 60%
    13:00 +16°C° 0 mm 5 mps 771 mmHg 57%
    14:00 +16°C° 0 mm 5 mps 771 mmHg 58%
    15:00 +15°C° 0 mm 4 mps 770 mmHg 58%
    16:00 +15°C° 0 mm 4 mps 770 mmHg 59%
    17:00 +14°C° 0 mm 4 mps 770 mmHg 64%
    18:00 +13°C° 0 mm 4 mps 770 mmHg 69%
    19:00 +12°C° 0 mm 4 mps 770 mmHg 73%
    20:00 +12°C° 0 mm 4 mps 770 mmHg 73%
    21:00 +11°C° 0 mm 4 mps 770 mmHg 74%
    22:00 +11°C° 0 mm 4 mps 770 mmHg 74%
    23:00 +11°C° 0 mm 4 mps 770 mmHg 74%

    Day after tomorrow, 28 June, Friday

    Time Temperature Precipitation Wind Pressure Humidity
    00:00 +10°C° 0 mm 5 mps 770 mmHg 73%
    01:00 +12°C° 0 mm 5 mps 770 mmHg 73%
    02:00 +10°C° 0 mm 5 mps 770 mmHg 73%
    03:00 +10°C° 0 mm 5 mps 769 mmHg 73%
    04:00 +10°C° 0 mm 5 mps 769 mmHg 73%
    05:00 +10°C° 0 mm 6 mps 769 mmHg 73%
    06:00 +10°C° 0 mm 6 mps 769 mmHg 73%
    07:00 +10°C° 0 mm 6 mps 769 mmHg 73%
    08:00 +11°C° 0 mm 6 mps 769 mmHg 70%
    09:00 +12°C° 0 mm 7 mps 769 mmHg 67%
    10:00 +12°C° 0 mm 7 mps 769 mmHg 64%
    11:00 +14°C° 0 mm 7 mps 768 mmHg 61%
    12:00 +15°C° 0 mm 7 mps 767 mmHg 58%
    13:00 +17°C° 0 mm 7 mps 766 mmHg 56%
    14:00 +16°C° 0 mm 7 mps 766 mmHg 57%
    15:00 +16°C° 0 mm 6 mps 765 mmHg 59%
    16:00 +16°C° 0 mm 6 mps 765 mmHg 61%
    17:00 +15°C° 0 mm 6 mps 764 mmHg 64%
    18:00 +15°C° 0 mm 6 mps 764 mmHg 67%
    19:00 +14°C° 0 mm 6 mps 764 mmHg 71%
    20:00 +14°C° 0.1 mm 6 mps 764 mmHg 72%
    21:00 +14°C° 0.1 mm 6 mps 764 mmHg 74%
    22:00 +14°C° 0.1 mm 6 mps 763 mmHg 75%
    23:00 +14°C° 0.3 mm 6 mps 763 mmHg 77%

    29 June, Saturday

    Time Temperature Precipitation Wind Pressure Humidity
    00:00 +14°C° 0.3 mm 6 mps 762 mmHg 79%
    01:00 +14°C° 0.3 mm 7 mps 762 mmHg 82%
    02:00 +14°C° 0.2 mm 7 mps 761 mmHg 82%
    03:00 +14°C° 0.2 mm 7 mps 760 mmHg 82%
    04:00 +14°C° 0.2 mm 7 mps 759 mmHg 82%
    05:00 +14°C° 0.6 mm 7 mps 759 mmHg 83%
    06:00 +13°C° 0.6 mm 8 mps 758 mmHg 83%
    07:00 +12°C° 0.6 mm 8 mps 758 mmHg 83%
    08:00 +12°C° 1.3 mm 8 mps 757 mmHg 83%
    09:00 +12°C° 1.3 mm 8 mps 756 mmHg 84%
    10:00 +12°C° 1.3 mm 9 mps 756 mmHg 84%
    11:00 +12°C° 2.3 mm 9 mps 755 mmHg 83%
    12:00 +12°C° 2.3 mm 9 mps 755 mmHg 83%
    13:00 +12°C° 2.3 mm 9 mps 754 mmHg 83%
    14:00 +11°C° 0.9 mm 8 mps 754 mmHg 79%
    15:00 +11°C° 0.9 mm 8 mps 754 mmHg 76%
    16:00 +10°C° 0.9 mm 7 mps 755 mmHg 73%
    17:00 +10°C° 0 mm 6 mps 755 mmHg 74%
    18:00 +9°C° 0 mm 6 mps 756 mmHg 75%
    19:00 +9°C° 0 mm 5 mps 757 mmHg 76%
    20:00 +9°C° 0.1 mm 5 mps 757 mmHg 76%
    21:00 +8°C° 0.1 mm 5 mps 758 mmHg 76%
    22:00 +8°C° 0.1 mm 5 mps 758 mmHg 76%
    23:00 +8°C° 0.1 mm 5 mps 759 mmHg 77%

    30 June, Sunday

    Time Temperature Precipitation Wind Pressure Humidity
    00:00 +8°C° 0.1 mm 5 mps 760 mmHg 78%
    01:00 +8°C° 0.1 mm 6 mps 760 mmHg 79%
    02:00 +7°C° 0 mm 5 mps 761 mmHg 79%
    03:00 +7°C° 0 mm 5 mps 761 mmHg 79%
    04:00 +6°C° 0 mm 5 mps 761 mmHg 79%
    05:00 +6°C° 0 mm 4 mps 762 mmHg 79%
    06:00 +6°C° 0 mm 4 mps 763 mmHg 78%
    07:00 +5°C° 0 mm 4 mps 764 mmHg 78%
    08:00 +6°C° 0 mm 4 mps 764 mmHg 73%
    09:00 +8°C° 0 mm 5 mps 765 mmHg 69%
    10:00 +9°C° 0 mm 5 mps 765 mmHg 64%
    11:00 +9°C° 0 mm 5 mps 765 mmHg 61%
    12:00 +10°C° 0 mm 5 mps 765 mmHg 57%
    13:00 +12°C° 0 mm 5 mps 765 mmHg 53%
    14:00 +12°C° 0 mm 4 mps 765 mmHg 54%
    15:00 +11°C° 0 mm 4 mps 765 mmHg 56%
    16:00 +11°C° 0 mm 3 mps 765 mmHg 57%
    17:00 +10°C° 0 mm 4 mps 765 mmHg 60%
    18:00 +10°C° 0 mm 4 mps 765 mmHg 63%
    19:00 +8°C° 0 mm 4 mps 766 mmHg 66%
    20:00 +8°C° 0 mm 4 mps 766 mmHg 65%
    21:00 +8°C° 0 mm 4 mps 766 mmHg 64%
    22:00 +8°C° 0 mm 5 mps 766 mmHg 64%
    23:00 +8°C° 0 mm 5 mps 766 mmHg 65%

    1 July, Monday

    Time Temperature Precipitation Wind Pressure Humidity
    00:00 +7°C° 0 mm 5 mps 766 mmHg 66%
    01:00 +7°C° 0 mm 5 mps 766 mmHg 67%
    02:00 +7°C° 0 mm 5 mps 765 mmHg 68%
    03:00 +7°C° 0 mm 5 mps 765 mmHg 68%
    04:00 +7°C° 0 mm 5 mps 765 mmHg 69%
    05:00 +7°C° 0 mm 5 mps 765 mmHg 68%
    06:00 +7°C° 0 mm 5 mps 765 mmHg 67%
    07:00 +7°C° 0 mm 5 mps 765 mmHg 67%
    08:00 +7°C° 0 mm 6 mps 765 mmHg 66%
    09:00 +8°C° 0 mm 6 mps 765 mmHg 66%
    10:00 +8°C° 0 mm 7 mps 764 mmHg 65%
    11:00 +9°C° 0 mm 7 mps 763 mmHg 63%
    12:00 +10°C° 0 mm 7 mps 763 mmHg 61%
    13:00 +10°C° 0 mm 7 mps 762 mmHg 60%
    14:00 +10°C° 0 mm 7 mps 761 mmHg 61%
    15:00 +10°C° 0 mm 7 mps 761 mmHg 62%
    16:00 +10°C° 0 mm 7 mps 760 mmHg 64%
    17:00 +9°C° 0 mm 7 mps 760 mmHg 65%
    18:00 +9°C° 0 mm 7 mps 760 mmHg 66%
    19:00 +7°C° 0 mm 8 mps 760 mmHg 67%
    20:00 +7°C° 0 mm 8 mps 760 mmHg 66%
    21:00 +7°C° 0 mm 8 mps 759 mmHg 66%
    22:00 +7°C° 0 mm 8 mps 759 mmHg 65%
    23:00 +7°C° 0 mm 8 mps 759 mmHg 65%
    Show more